OPS 4682 DEB, 38452

Orbit data source: Space-Track

OPS 4682 DEB, 38452 is space debris in LEO originally from a launch on Sat, 03 Apr 1965 UTC launched from the Air Force Western Test Range (AFWTR). Debris objects in space refer to the collection of defunct objects orbiting the Earth. Examples of debris include non-operational satellites, rocket bodies, and fragments generated from explosions, collisions, or faulty payload assembly.

Loading next visibility...
Identifier
38452, 1965-027FH
Orbit
LEO
Country
Flag of USUS
Related business
Manufacturer
Unknown
Mission
Spacecraft
Bus & Motor
Unknown
Mass
Unknown
Launch date (UTC)
1965-04-03 (61 years ago)
Launch vehicle
Unknown
Launch site
Air Force Western Test Range (AFWTR)
Object type
Payload
Rocket body
Debris
Shape & HBR
Unknown shape, 0.1 m
Radar Cross Section
Small (<0.1 m²)

Expand to show TLE details & history
Last TLE update: 3 days ago

TLE from 3 days ago
0 OPS 4682 DEB
1 38452U 65027FH  26033.34851646  .00000334  00000-0  11820-2 0  9997
2 38452  90.2471   0.5066 0016152 150.4923 209.7111 12.93953932605663
Epoch: 2026-02-02T08:21Z
TLE epoch observation values (Epoch: 2026-02-02T08:21:51.822Z)
Latitude
0.00004°
Longitude
102.49559°
Altitude
1,299.501 km
Speed
7.202 km/s
True Right ascension
00h 02m 01s
True Declination
0° 00' 00"
Sunlit
Object was in daylight at epoch
Visualization orbit readout
Latitude
Unknown
Longitude
Unknown
Altitude
Unknown
Speed
Unknown
Apparent Right ascension
Unknown
Apparent Declination
Unknown
Sunlit
N/A
Visualization observer readout
Local Sidereal Time
08:46:51
Azimuth
Unknown
Elevation
Unknown
Doppler factor
Unknown
Orbital elements
Apogee altitude
1,295.378 km
Perigee altitude
1,270.629 km
Semi-major axis
7,661.141 km
Eccentricity
0.00162
Inclination
90.2471°
RAAN
0.5066°
Arg. of periapsis
150.4923°
True anomaly
209.61953°
Mean anomaly
209.7111°
Eccentric anomaly
209.6653°
Mean motion
3.2367 °/min
Orbital period
111.22 mins
BSTAR
0.001182
Loading maneuver chart data...
Computing Atmospheric mass density...
Loading historical data...
Loading historical data...
Loading historical data...
Loading historical data...
Loading historical data...
Loading historical data...
Loading historical data...

Documentation

Showing up to 5 results
|